Johnstown, PA

4:50 AM EDT on March 23, 2017 (GMT -0400)
Johnstown-Cambria County

Weather History for KJST - November, 2011

Change the Weather History Date:

Tuesday, November 29, 2011

  Actual Average Record
Temperature  
Mean Temperature 44 °F 34 °F  
Max Temperature 55 °F 40 °F 70 °F (1960)
Min Temperature 32 °F 28 °F 1 °F (1930)
Degree Days  
Heating Degree Days 22 31  
Month to date heating degree days 732  
Since 1 July heating degree days 1425  
Cooling Degree Days 0 0  
Month to date cooling degree days 0  
Year to date cooling degree days 382  
Moisture  
Dew Point 45 °F    
Average Humidity 90    
Maximum Humidity 100    
Minimum Humidity 71    
Precipitation  
Precipitation 0.30 in 0.13 in 1.72 in (1987)
Month to date precipitation 3.56  
Year to date precipitation 30.91  
Sea Level Pressure  
Sea Level Pressure 29.68 in    
Wind  
Wind Speed 13 mph (South)    
Max Wind Speed 18 mph    
Max Gust Speed 33 mph    
Visibility 8 miles    
Events Rain , Snow    
T = Trace of Precipitation, MM = Missing Value Source: NWS Daily Summary

Daily Weather History Graph

Daily Weather History Graph

Search for Another Location

Airport or City:

Trip Planner

Search our weather history database for the weather conditions in past years. The results will help you decide how hot, cold, wet, or windy it might be!

Date:

Astronomy

Nov. 29, 2011 Rise Set
Actual Time 7:16 AM EST 4:50 PM EST
Civil Twilight 6:46 AM EST 5:20 PM EST
Nautical Twilight 6:12 AM EST 5:54 PM EST
Astronomical Twilight 5:40 AM EST 6:26 PM EST
Moon 11:01 AM EST (11/29) 9:42 PM EST (11/29)
Length of Visible Light 10h 33m
Length of Day
9h 33m
Waxing Crescent, 24% of the Moon is Illuminated
Nov 29
Waxing Crescent
Dec 2
First Quarter
Dec 10
Full
Dec 17
Last Quarter
Dec 24
New

Hourly Weather History & Observations

Time (EST) Temp. Windchill Dew Point Humidity Pressure Visibility Wind Dir Wind Speed Gust Speed Precip Events Conditions
12:54 AM 55.0 °F - 52.0 °F 89% 29.88 in 10.0 mi SE 13.8 mph 21.9 mph N/A   Overcast
1:07 AM 55.4 °F - 51.8 °F 88% 29.88 in 10.0 mi SE 16.1 mph 23.0 mph N/A   Mostly Cloudy
1:28 AM 55.4 °F - 51.8 °F 88% 29.87 in 10.0 mi SE 10.4 mph 19.6 mph N/A   Mostly Cloudy
1:54 AM 55.0 °F - 52.0 °F 89% 29.86 in 10.0 mi SE 10.4 mph 18.4 mph N/A   Overcast
2:06 AM 55.4 °F - 51.8 °F 88% 29.87 in 10.0 mi SE 9.2 mph 19.6 mph N/A   Overcast
2:33 AM 55.4 °F - 51.8 °F 88% 29.85 in 10.0 mi SE 13.8 mph 24.2 mph 0.00 in Rain Light Rain
2:54 AM 55.0 °F - 52.0 °F 89% 29.85 in 10.0 mi SSE 12.7 mph 25.3 mph 0.00 in   Overcast
3:29 AM 55.4 °F - 51.8 °F 88% 29.84 in 10.0 mi SE 12.7 mph 21.9 mph N/A   Overcast
3:54 AM 55.9 °F - 52.0 °F 87% 29.81 in 10.0 mi SE 16.1 mph 26.5 mph N/A   Mostly Cloudy
4:54 AM 55.9 °F - 51.1 °F 84% 29.78 in 10.0 mi SSE 13.8 mph 25.3 mph N/A   Mostly Cloudy
5:54 AM 55.9 °F - 52.0 °F 87% 29.77 in 10.0 mi SE 17.3 mph 25.3 mph N/A   Partly Cloudy
6:54 AM 55.4 °F - 51.8 °F 88% 29.75 in 10.0 mi ESE 12.7 mph 20.7 mph N/A   Overcast
7:24 AM 55.4 °F - 51.8 °F 88% 29.76 in 9.0 mi SE 17.3 mph 28.8 mph 0.00 in Rain Light Rain
7:54 AM 55.0 °F - 52.0 °F 89% 29.72 in 10.0 mi SE 17.3 mph 31.1 mph 0.00 in Rain Light Rain
8:10 AM 55.4 °F - 51.8 °F 88% 29.72 in 10.0 mi SE 18.4 mph 29.9 mph 0.00 in   Mostly Cloudy
8:20 AM 55.4 °F - 51.8 °F 88% 29.71 in 10.0 mi ESE 16.1 mph 27.6 mph 0.00 in Rain Light Rain
8:54 AM 55.0 °F - 52.0 °F 89% 29.70 in 10.0 mi ESE 16.1 mph 31.1 mph 0.00 in Rain Light Rain
9:02 AM 55.4 °F - 53.6 °F 94% 29.70 in 10.0 mi SE 16.1 mph 31.1 mph 0.00 in Rain Light Rain
9:10 AM 55.4 °F - 53.6 °F 94% 29.69 in 10.0 mi SE 18.4 mph 31.1 mph 0.01 in Rain Light Rain
9:37 AM 55.4 °F - 53.6 °F 94% 29.68 in 5.0 mi SE 13.8 mph 26.5 mph 0.02 in Rain Light Rain
9:54 AM 55.0 °F - 53.1 °F 93% 29.67 in 8.0 mi SE 18.4 mph 27.6 mph 0.03 in Rain Light Rain
10:17 AM 55.4 °F - 53.6 °F 94% 29.67 in 10.0 mi SE 16.1 mph 31.1 mph 0.01 in Rain Light Rain
10:43 AM 55.4 °F - 53.6 °F 94% 29.67 in 3.0 mi SE 16.1 mph 33.4 mph 0.02 in Rain Light Rain
10:54 AM 55.0 °F - 54.0 °F 96% 29.66 in 2.0 mi SE 16.1 mph 28.8 mph 0.02 in Rain Light Rain
11:09 AM 55.4 °F - 53.6 °F 94% 29.67 in 2.5 mi SE 15.0 mph 21.9 mph 0.01 in Rain Light Rain
11:12 AM 55.4 °F - 53.6 °F 94% 29.67 in 4.0 mi SE 15.0 mph 23.0 mph 0.01 in Rain Light Rain
11:22 AM 55.4 °F - 53.6 °F 94% 29.67 in 4.0 mi SSE 12.7 mph 24.2 mph 0.03 in Rain Light Rain
11:51 AM 55.4 °F - 53.6 °F 94% 29.65 in 10.0 mi SSE 9.2 mph - 0.06 in Rain Light Rain
11:54 AM 55.0 °F - 54.0 °F 96% 29.64 in 10.0 mi SE 9.2 mph - 0.06 in Rain Light Rain
12:54 PM 52.0 °F - 48.0 °F 86% 29.60 in 10.0 mi SE 15.0 mph 21.9 mph 0.03 in   Mostly Cloudy
1:54 PM 53.1 °F - 45.0 °F 74% 29.58 in 10.0 mi South 17.3 mph - N/A   Clear
2:54 PM 51.1 °F - 42.1 °F 71% 29.58 in 10.0 mi South 12.7 mph - N/A   Clear
3:41 PM 46.4 °F 41.5 °F 41.0 °F 81% 29.60 in 10.0 mi WSW 10.4 mph - N/A   Overcast
3:54 PM 45.0 °F 40.1 °F 41.0 °F 86% 29.60 in 10.0 mi WSW 9.2 mph - N/A   Overcast
4:06 PM 44.6 °F 38.8 °F 41.0 °F 87% 29.60 in 10.0 mi WSW 11.5 mph - N/A   Overcast
4:40 PM 44.6 °F 40.7 °F 39.2 °F 81% 29.60 in 10.0 mi West 6.9 mph - N/A   Overcast
4:54 PM 44.1 °F 40.1 °F 39.0 °F 82% 29.61 in 10.0 mi WSW 6.9 mph - N/A   Overcast
5:28 PM 42.8 °F 37.5 °F 37.4 °F 81% 29.61 in 10.0 mi West 9.2 mph - N/A   Overcast
5:54 PM 42.1 °F 37.1 °F 37.0 °F 82% 29.62 in 10.0 mi West 8.1 mph - N/A   Overcast
6:54 PM 42.1 °F 37.7 °F 37.0 °F 82% 29.62 in 10.0 mi West 6.9 mph - N/A   Overcast
7:09 PM 39.2 °F 32.5 °F 35.6 °F 87% 29.61 in 10.0 mi WNW 10.4 mph - N/A   Overcast
7:54 PM 37.9 °F 33.5 °F 35.1 °F 89% 29.63 in 4.0 mi West 5.8 mph - 0.09 in Rain Rain
8:48 PM 35.6 °F 28.6 °F 33.8 °F 93% 29.60 in 10.0 mi West 9.2 mph - 0.04 in Rain Light Rain
8:54 PM 35.1 °F 27.9 °F 33.1 °F 92% 29.62 in 10.0 mi West 9.2 mph - 0.04 in Rain Light Rain
9:49 PM 33.8 °F 26.4 °F 33.8 °F 100% 29.59 in 8.0 mi WSW 9.2 mph - 0.01 in Snow Light Snow
9:54 PM 35.1 °F 27.9 °F 33.1 °F 92% 29.62 in 9.0 mi West 9.2 mph - 0.01 in Rain Light Rain
10:11 PM 33.8 °F 25.8 °F 33.8 °F 100% 29.60 in 8.0 mi WSW 10.4 mph - 0.00 in Snow Light Snow
10:16 PM 33.8 °F 27.0 °F 33.8 °F 100% 29.60 in 7.0 mi WSW 8.1 mph - 0.00 in Snow Light Snow
10:31 PM 33.8 °F 28.6 °F 33.8 °F 100% 29.60 in 3.0 mi SW 5.8 mph - 0.01 in Snow Light Snow
10:38 PM 33.8 °F 29.6 °F 33.8 °F 100% 29.60 in 2.5 mi SW 4.6 mph - 0.01 in Snow Light Snow
10:54 PM 32.0 °F 27.5 °F 32.0 °F 100% 29.62 in 2.5 mi West 4.6 mph - 0.01 in Snow Light Snow
11:05 PM 33.8 °F 28.6 °F 33.8 °F 100% 29.59 in 4.0 mi WSW 5.8 mph - 0.01 in Snow Light Snow
11:23 PM 33.8 °F 26.4 °F 33.8 °F 100% 29.59 in 5.0 mi West 9.2 mph - 0.01 in Snow Light Snow
11:43 PM 33.8 °F 26.4 °F 32.0 °F 93% 29.59 in 8.0 mi WSW 9.2 mph - 0.01 in Snow Light Snow
11:54 PM 33.1 °F 24.9 °F 32.0 °F 96% 29.62 in 4.0 mi WSW 10.4 mph - 0.01 in Snow Light Snow